Weather History for KC29 - March, 2014

Change the Weather History Date:

Sunday, March 30, 2014

  Actual Average (KMSN) Record (KMSN)
Temperature  
Mean Temperature 44 °F 40 °F  
Max Temperature 59 °F 50 °F 78 °F (1967)
Min Temperature 29 °F 30 °F 2 °F (1969)
Degree Days  
Heating Degree Days 21 25  
Month to date heating degree days 937  
Since 1 July heating degree days 6423  
Cooling Degree Days 0 0  
Month to date cooling degree days 0  
Year to date cooling degree days 0  
Moisture  
Dew Point 28 °F    
Average Humidity 54    
Maximum Humidity 79    
Minimum Humidity 37    
Precipitation  
Precipitation 0.00 in 0.10 in 2.78 in (1998)
Month to date precipitation 2.11  
Year to date precipitation 4.79  
Snow  
Snow 0.00 in 0.10 in 3.80 in (1934)
Month to date snowfall 6.8  
Since 1 July snowfall 47.9  
Snow Depth -    
Sea Level Pressure  
Sea Level Pressure 30.09 in    
Wind  
Wind Speed 8 mph (South)    
Max Wind Speed 22 mph    
Max Gust Speed 26 mph    
Visibility 10 miles    
Events      
T = Trace of Precipitation, MM = Missing Value Source: NWS Daily Summary

Daily Weather History Graph

Daily Weather History Graph

Search for Another Location

Airport or City:

Trip Planner

Search our weather history database for the weather conditions in past years. The results will help you decide how hot, cold, wet, or windy it might be!

Date:

Astronomy

Mar. 30, 2014 Rise Set
Actual Time 6:43 AM CDT 7:22 PM CDT
Civil Twilight 6:14 AM CDT 7:50 PM CDT
Nautical Twilight 5:41 AM CDT 8:24 PM CDT
Astronomical Twilight 5:06 AM CDT 9:00 PM CDT
Moon 6:29 AM CDT (3/30) 7:35 PM CDT (3/30)
Length of Visible Light 13h 35m
Length of Day
12h 38m
Waning Crescent, 0% of the Moon is Illuminated
Mar 30
Waning Crescent
Mar 30
New
Apr 7
First Quarter
Apr 15
Full
Apr 22
Last Quarter

Hourly Weather History & Observations

Time (CDT) Temp. Windchill Dew Point Humidity Pressure Visibility Wind Dir Wind Speed Gust Speed Precip Events Conditions
12:15 AM 31.5 °F 26.8 °F 25.7 °F 79% 30.24 in 10.0 mi SSE 4.6 mph - N/A   Clear
12:35 AM 33.3 °F 28.9 °F 23.4 °F 67% 30.24 in 10.0 mi South 4.6 mph - N/A   Clear
12:55 AM 32.5 °F 28.1 °F 21.0 °F 63% 30.23 in 10.0 mi SE 4.6 mph - N/A   Clear
1:15 AM 32.0 °F 28.7 °F 20.3 °F 62% 30.23 in 10.0 mi SE 3.5 mph - N/A   Clear
1:35 AM 32.0 °F 28.7 °F 19.8 °F 61% 30.23 in 10.0 mi SE 3.5 mph - N/A   Clear
1:55 AM 30.2 °F - 19.2 °F 64% 30.23 in 10.0 mi Calm Calm - N/A   Clear
2:15 AM 31.3 °F 27.9 °F 19.9 °F 63% 30.22 in 10.0 mi South 3.5 mph - N/A   Clear
2:35 AM 32.0 °F 28.7 °F 19.4 °F 60% 30.22 in 10.0 mi South 3.5 mph - N/A   Clear
2:55 AM 31.6 °F 27.0 °F 19.4 °F 61% 30.22 in 10.0 mi South 4.6 mph - N/A   Clear
3:15 AM 31.1 °F 25.4 °F 19.9 °F 63% 30.20 in 10.0 mi SSE 5.8 mph - N/A   Clear
3:35 AM 31.3 °F 26.6 °F 18.3 °F 59% 30.20 in 10.0 mi SSE 4.6 mph - N/A   Clear
3:55 AM 30.7 °F 24.9 °F 18.5 °F 60% 30.18 in 10.0 mi SE 5.8 mph - N/A   Clear
4:15 AM 30.9 °F 26.2 °F 19.2 °F 62% 30.18 in 10.0 mi SSE 4.6 mph - N/A   Clear
4:35 AM 31.1 °F 26.4 °F 18.7 °F 60% 30.19 in 10.0 mi SSE 4.6 mph - N/A   Clear
4:55 AM 30.9 °F - 18.5 °F 60% 30.19 in 10.0 mi Calm Calm - N/A   Clear
5:15 AM 30.2 °F 25.4 °F 19.2 °F 64% 30.18 in 10.0 mi SSE 4.6 mph - N/A   Clear
5:35 AM 29.8 °F 26.3 °F 18.5 °F 63% 30.20 in 10.0 mi SSW 3.5 mph - N/A   Clear
5:55 AM 29.7 °F 26.1 °F 19.2 °F 65% 30.20 in 10.0 mi SSE 3.5 mph - N/A   Clear
6:15 AM 30.2 °F 25.4 °F 18.5 °F 62% 30.18 in 10.0 mi SSE 4.6 mph - N/A   Clear
6:35 AM 29.5 °F 25.9 °F 18.7 °F 64% 30.18 in 10.0 mi SE 3.5 mph - N/A   Clear
6:55 AM 30.6 °F - 18.5 °F 61% 30.19 in 10.0 mi Calm Calm - N/A   Clear
7:15 AM 31.5 °F 24.2 °F 18.9 °F 60% 30.19 in 10.0 mi South 8.1 mph - N/A   Clear
7:35 AM 32.5 °F 27.1 °F 19.2 °F 58% 30.19 in 10.0 mi South 5.8 mph - N/A   Clear
7:55 AM 34.0 °F 26.6 °F 19.0 °F 54% 30.19 in 10.0 mi South 9.2 mph - N/A   Clear
8:15 AM 34.7 °F 26.4 °F 19.6 °F 54% 30.18 in 10.0 mi South 11.5 mph - N/A   Clear
8:35 AM 36.0 °F 27.5 °F 19.8 °F 52% 30.18 in 10.0 mi South 12.7 mph 17.3 mph N/A   Clear
8:55 AM 37.6 °F 29.1 °F 20.8 °F 51% 30.18 in 10.0 mi South 13.8 mph - N/A   Clear
9:15 AM 38.7 °F 30.9 °F 22.8 °F 53% 30.17 in 10.0 mi South 12.7 mph - N/A   Clear
9:35 AM 40.1 °F 34.7 °F 23.9 °F 52% 30.17 in 10.0 mi South 8.1 mph - N/A   Clear
9:55 AM 41.9 °F 35.0 °F 25.5 °F 52% 30.17 in 10.0 mi South 12.7 mph 17.3 mph N/A   Clear
10:15 AM 43.9 °F 37.2 °F 27.1 °F 52% 30.16 in 10.0 mi South 13.8 mph - N/A   Clear
10:35 AM 45.3 °F 39.3 °F 28.0 °F 51% 30.14 in 10.0 mi South 12.7 mph 19.6 mph N/A   Clear
10:55 AM 46.4 °F 39.5 °F 29.3 °F 51% 30.14 in 10.0 mi South 17.3 mph - N/A   Clear
11:15 AM 47.1 °F - 29.3 °F 50% 30.13 in 10.0 mi South 16.1 mph 21.9 mph N/A   Clear
11:35 AM 48.4 °F - 30.4 °F 50% 30.12 in 10.0 mi South 15.0 mph 21.9 mph N/A   Clear
11:55 AM 48.9 °F - 30.4 °F 49% 30.11 in 10.0 mi South 16.1 mph 20.7 mph N/A   Clear
12:15 PM 50.5 °F - 30.7 °F 47% 30.11 in 10.0 mi South 15.0 mph 21.9 mph N/A   Clear
12:35 PM 50.9 °F - 31.3 °F 47% 30.10 in 10.0 mi South 16.1 mph 21.9 mph N/A   Clear
12:55 PM 52.5 °F - 31.8 °F 45% 30.10 in 10.0 mi South 15.0 mph - N/A   Clear
1:15 PM 53.1 °F - 31.6 °F 44% 30.08 in 10.0 mi South 15.0 mph 20.7 mph N/A   Clear
1:35 PM 54.5 °F - 32.4 °F 43% 30.07 in 10.0 mi South 18.4 mph 24.2 mph N/A   Clear
1:55 PM 54.7 °F - 32.2 °F 42% 30.06 in 10.0 mi South 17.3 mph 20.7 mph N/A   Clear
2:15 PM 55.4 °F - 32.2 °F 41% 30.05 in 10.0 mi SSW 15.0 mph 23.0 mph N/A   Clear
2:35 PM 56.3 °F - 32.2 °F 40% 30.03 in 10.0 mi South 16.1 mph 25.3 mph N/A   Clear
2:55 PM 57.2 °F - 32.9 °F 40% 30.02 in 10.0 mi South 17.3 mph - N/A   Clear
3:15 PM 57.4 °F - 33.1 °F 40% 30.01 in 10.0 mi South 15.0 mph 25.3 mph N/A   Clear
3:35 PM 58.1 °F - 32.7 °F 38% 30.00 in 10.0 mi South 19.6 mph 26.5 mph N/A   Clear
3:55 PM 58.1 °F - 32.5 °F 38% 30.00 in 10.0 mi SSW 18.4 mph 25.3 mph N/A   Clear
4:15 PM 59.0 °F - 32.7 °F 37% 29.98 in 10.0 mi SSW 16.1 mph 24.2 mph N/A   Clear
4:35 PM 58.3 °F - 32.9 °F 38% 29.98 in 10.0 mi South 21.9 mph 25.3 mph N/A   Clear
4:55 PM 58.3 °F - 33.1 °F 39% 29.97 in 10.0 mi South 20.7 mph 26.5 mph N/A   Clear
5:15 PM 58.1 °F - 34.0 °F 40% 29.97 in 10.0 mi South 18.4 mph 25.3 mph N/A   Clear
5:35 PM 57.2 °F - 34.9 °F 43% 29.97 in 10.0 mi South 10.4 mph 19.6 mph N/A   Clear
5:55 PM 56.5 °F - 34.9 °F 44% 29.96 in 10.0 mi South 12.7 mph - N/A   Clear
6:15 PM 56.3 °F - 34.7 °F 44% 29.95 in 10.0 mi South 13.8 mph 20.7 mph N/A   Clear
6:35 PM 55.6 °F - 34.9 °F 46% 29.95 in 10.0 mi South 13.8 mph 20.7 mph N/A   Clear
6:55 PM 54.5 °F - 35.2 °F 48% 29.95 in 10.0 mi South 11.5 mph 19.6 mph N/A   Clear
7:15 PM 53.6 °F - 35.6 °F 51% 29.95 in 10.0 mi South 11.5 mph - N/A   Clear
7:35 PM 53.2 °F - 35.6 °F 51% 29.95 in 10.0 mi South 9.2 mph 17.3 mph N/A   Clear
7:55 PM 52.3 °F - 35.6 °F 53% 29.95 in 10.0 mi South 10.4 mph - N/A   Clear
8:15 PM 51.8 °F - 35.6 °F 54% 29.95 in 10.0 mi South 9.2 mph - N/A   Clear
8:35 PM 51.8 °F - 35.2 °F 53% 29.95 in 10.0 mi South 10.4 mph - N/A   Clear
8:55 PM 51.1 °F - 34.9 °F 54% 29.96 in 10.0 mi South 10.4 mph 16.1 mph N/A   Clear
9:15 PM 50.4 °F - 34.7 °F 55% 29.95 in 10.0 mi South 11.5 mph - N/A   Clear
9:35 PM 49.1 °F - 34.2 °F 56% 29.96 in 10.0 mi South 9.2 mph - N/A   Clear
9:55 PM 48.2 °F - 34.3 °F 59% 29.97 in 10.0 mi South 6.9 mph - N/A   Clear
10:15 PM 47.7 °F - 35.6 °F 63% 29.97 in 10.0 mi South 9.2 mph - N/A   Clear
10:35 PM 47.3 °F - 35.6 °F 64% 29.97 in 10.0 mi SSW 8.1 mph - N/A   Clear
10:55 PM 47.5 °F - 35.6 °F 63% 29.97 in 10.0 mi South 5.8 mph - N/A   Clear
11:15 PM 47.3 °F - 35.6 °F 64% 29.97 in 10.0 mi SSE 4.6 mph - N/A   Clear
11:35 PM 47.3 °F - 35.6 °F 64% 29.97 in 10.0 mi South 3.5 mph - N/A   Clear
11:55 PM 46.8 °F - 35.6 °F 65% 29.98 in 10.0 mi Calm Calm - N/A   Clear